Time,TemperatureF,DewpointF,PressureIn,WindDirection,WindDirectionDegrees,WindSpeedMPH,WindSpeedGustMPH,Humidity,HourlyPrecipIn,Conditions,Clouds,dailyrainin,SoftwareType,DateUTC
2013-03-26 00:02:00,36.0,33.0,29.95,NNW,330,0.0,2.0,87,0.00,,,0.00,,2013-03-26 07:02:00,
2013-03-26 00:22:00,35.0,32.0,29.95,NNW,330,0.0,1.0,88,0.00,,,0.00,,2013-03-26 07:22:00,
2013-03-26 00:32:00,35.0,32.0,29.95,NNW,329,0.0,0.0,89,0.00,,,0.00,,2013-03-26 07:32:00,
2013-03-26 00:52:00,35.0,33.0,29.95,NNW,329,0.0,0.0,91,0.00,,,0.00,,2013-03-26 07:52:00,
2013-03-26 01:01:00,36.0,34.0,29.95,NNW,329,0.0,0.0,92,0.00,,,0.00,,2013-03-26 08:01:00,
2013-03-26 01:12:00,36.0,34.0,29.95,NNW,329,0.0,0.0,92,0.00,,,0.00,,2013-03-26 08:12:00,
2013-03-26 01:21:00,38.0,35.0,29.95,NNW,329,0.0,1.0,90,0.00,,,0.00,,2013-03-26 08:21:00,
2013-03-26 01:31:00,38.0,34.0,29.95,NNW,329,0.0,0.0,87,0.00,,,0.00,,2013-03-26 08:31:00,
2013-03-26 01:42:00,38.0,34.0,29.95,NNW,329,0.0,0.0,87,0.00,,,0.00,,2013-03-26 08:42:00,
2013-03-26 01:52:00,38.0,34.0,29.95,NNW,329,0.0,1.0,87,0.00,,,0.00,,2013-03-26 08:52:00,
2013-03-26 02:01:00,39.0,35.0,29.94,North,355,0.0,0.0,85,0.00,,,0.00,,2013-03-26 09:01:00,
2013-03-26 02:11:00,39.0,35.0,29.94,North,355,0.0,0.0,85,0.00,,,0.00,,2013-03-26 09:11:00,
2013-03-26 02:21:00,38.0,34.0,29.94,North,355,0.0,1.0,85,0.00,,,0.00,,2013-03-26 09:21:00,
2013-03-26 02:32:00,38.0,34.0,29.95,North,355,0.0,1.0,86,0.00,,,0.00,,2013-03-26 09:32:00,
2013-03-26 02:42:00,38.0,34.0,29.95,North,355,0.0,1.0,86,0.00,,,0.00,,2013-03-26 09:42:00,
2013-03-26 02:52:00,38.0,34.0,29.95,North,355,0.0,0.0,86,0.00,,,0.00,,2013-03-26 09:52:00,
2013-03-26 03:02:00,37.0,34.0,29.95,North,355,0.0,1.0,87,0.00,,,0.00,,2013-03-26 10:02:00,
2013-03-26 03:12:00,37.0,34.0,29.95,North,355,0.0,1.0,87,0.00,,,0.00,,2013-03-26 10:12:00,
2013-03-26 03:22:00,37.0,34.0,29.95,North,355,0.0,2.0,88,0.00,,,0.00,,2013-03-26 10:22:00,
2013-03-26 03:32:00,37.0,34.0,29.95,North,355,0.0,2.0,88,0.00,,,0.00,,2013-03-26 10:32:00,
2013-03-26 03:42:00,37.0,34.0,29.95,North,355,0.0,2.0,88,0.00,,,0.00,,2013-03-26 10:42:00,
2013-03-26 03:52:00,38.0,35.0,29.95,North,355,0.0,1.0,88,0.00,,,0.00,,2013-03-26 10:52:00,
2013-03-26 04:02:00,38.0,34.0,29.94,North,355,0.0,0.0,87,0.00,,,0.00,,2013-03-26 11:02:00,
2013-03-26 04:11:00,38.0,34.0,29.94,North,355,0.0,0.0,87,0.00,,,0.00,,2013-03-26 11:11:00,
2013-03-26 04:21:00,38.0,34.0,29.94,North,355,0.0,0.0,87,0.00,,,0.00,,2013-03-26 11:21:00,
2013-03-26 04:32:00,38.0,34.0,29.95,North,355,0.0,1.0,86,0.00,,,0.00,,2013-03-26 11:32:00,
2013-03-26 04:42:00,38.0,34.0,29.95,North,355,0.0,1.0,86,0.00,,,0.00,,2013-03-26 11:42:00,
2013-03-26 04:52:00,38.0,34.0,29.95,North,355,0.0,1.0,86,0.00,,,0.00,,2013-03-26 11:52:00,
2013-03-26 05:02:00,38.0,34.0,29.95,North,355,0.0,1.0,86,0.00,,,0.00,,2013-03-26 12:02:00,
2013-03-26 05:11:00,38.0,34.0,29.94,North,355,0.0,2.0,86,0.00,,,0.00,,2013-03-26 12:11:00,
2013-03-26 05:21:00,37.0,34.0,29.94,North,355,0.0,1.0,87,0.00,,,0.00,,2013-03-26 12:21:00,
2013-03-26 05:31:00,37.0,34.0,29.94,North,355,0.0,1.0,87,0.00,,,0.00,,2013-03-26 12:31:00,
2013-03-26 05:42:00,37.0,34.0,29.94,North,355,0.0,1.0,87,0.00,,,0.00,,2013-03-26 12:42:00,
2013-03-26 05:52:00,36.0,33.0,29.95,North,355,0.0,1.0,87,0.00,,,0.00,,2013-03-26 12:52:00,
2013-03-26 06:02:00,35.0,32.0,29.95,North,355,0.0,0.0,89,0.00,,,0.00,,2013-03-26 13:02:00,
2013-03-26 06:11:00,35.0,32.0,29.95,North,355,0.0,0.0,89,0.00,,,0.00,,2013-03-26 13:11:00,
2013-03-26 06:32:00,36.0,34.0,29.96,North,355,0.0,0.0,91,0.00,,,0.00,,2013-03-26 13:32:00,
2013-03-26 06:42:00,36.0,34.0,29.96,North,355,0.0,0.0,91,0.00,,,0.00,,2013-03-26 13:42:00,
2013-03-26 06:52:00,36.0,34.0,29.96,North,355,0.0,0.0,91,0.00,,,0.00,,2013-03-26 13:52:00,
2013-03-26 07:01:00,36.0,34.0,29.96,North,355,0.0,0.0,91,0.00,,,0.00,,2013-03-26 14:01:00,
2013-03-26 07:11:00,36.0,34.0,29.96,North,355,0.0,0.0,91,0.00,,,0.00,,2013-03-26 14:11:00,
2013-03-26 07:22:00,36.0,34.0,29.96,North,355,0.0,0.0,91,0.00,,,0.00,,2013-03-26 14:22:00,
2013-03-26 07:32:00,36.0,34.0,29.97,North,355,0.0,0.0,91,0.00,,,0.00,,2013-03-26 14:32:00,
2013-03-26 07:42:00,36.0,34.0,29.97,North,355,0.0,0.0,91,0.00,,,0.00,,2013-03-26 14:42:00,
2013-03-26 07:52:00,36.0,34.0,29.97,North,355,0.0,0.0,91,0.00,,,0.00,,2013-03-26 14:52:00,
2013-03-26 08:02:00,36.0,34.0,29.97,North,355,0.0,0.0,91,0.00,,,0.00,,2013-03-26 15:02:00,
2013-03-26 08:12:00,36.0,34.0,29.97,North,355,0.0,0.0,91,0.00,,,0.00,,2013-03-26 15:12:00,
2013-03-26 08:21:00,38.0,36.0,29.97,North,355,0.0,0.0,91,0.00,,,0.00,,2013-03-26 15:21:00,
2013-03-26 08:32:00,39.0,36.0,29.97,North,355,0.0,1.0,90,0.00,,,0.00,,2013-03-26 15:32:00,
2013-03-26 08:43:00,39.0,36.0,29.97,North,355,0.0,1.0,90,0.00,,,0.00,,2013-03-26 15:43:00,
2013-03-26 08:52:00,40.0,37.0,29.97,North,355,0.0,0.0,88,0.00,,,0.00,,2013-03-26 15:52:00,
2013-03-26 09:02:00,41.0,37.0,29.97,North,355,0.0,0.0,86,0.00,,,0.00,,2013-03-26 16:02:00,
2013-03-26 09:12:00,41.0,37.0,29.97,North,355,0.0,0.0,86,0.00,,,0.00,,2013-03-26 16:12:00,
2013-03-26 09:22:00,43.0,38.0,29.97,North,355,0.0,0.0,81,0.00,,,0.00,,2013-03-26 16:22:00,
2013-03-26 09:32:00,46.0,40.0,29.97,North,355,0.0,1.0,78,0.00,,,0.00,,2013-03-26 16:32:00,
2013-03-26 09:42:00,46.0,40.0,29.97,North,355,0.0,1.0,78,0.00,,,0.00,,2013-03-26 16:42:00,
2013-03-26 09:53:00,51.0,42.0,29.98,WSW,255,0.0,3.0,71,0.00,,,0.00,,2013-03-26 16:53:00,
2013-03-26 10:02:00,53.0,42.0,29.98,South,190,0.0,3.0,66,0.00,,,0.00,,2013-03-26 17:02:00,
2013-03-26 10:12:00,53.0,42.0,29.98,South,190,0.0,3.0,66,0.00,,,0.00,,2013-03-26 17:12:00,
2013-03-26 10:22:00,55.0,40.0,29.98,SE,140,1.0,4.0,56,0.00,,,0.00,,2013-03-26 17:22:00,
2013-03-26 10:32:00,55.0,41.0,29.98,South,182,1.0,5.0,58,0.00,,,0.00,,2013-03-26 17:32:00,
2013-03-26 10:42:00,55.0,41.0,29.98,South,182,1.0,5.0,58,0.00,,,0.00,,2013-03-26 17:42:00,
2013-03-26 10:52:00,56.0,40.0,29.98,SSW,208,0.0,5.0,54,0.00,,,0.00,,2013-03-26 17:52:00,
2013-03-26 11:01:00,57.0,41.0,29.98,South,173,1.0,5.0,56,0.00,,,0.00,,2013-03-26 18:01:00,
2013-03-26 11:12:00,57.0,41.0,29.98,South,173,1.0,5.0,56,0.00,,,0.00,,2013-03-26 18:12:00,
2013-03-26 11:22:00,57.0,40.0,29.98,SSW,200,2.0,7.0,53,0.00,,,0.00,,2013-03-26 18:22:00,
2013-03-26 11:33:00,56.0,39.0,29.98,ESE,113,0.0,3.0,53,0.00,,,0.00,,2013-03-26 18:33:00,
2013-03-26 11:42:00,56.0,39.0,29.98,ESE,113,0.0,3.0,53,0.00,,,0.00,,2013-03-26 18:42:00,
2013-03-26 11:52:00,57.0,41.0,29.99,SW,223,1.0,4.0,54,0.00,,,0.00,,2013-03-26 18:52:00,
2013-03-26 12:02:00,58.0,40.0,29.98,SSW,202,1.0,4.0,52,0.00,,,0.00,,2013-03-26 19:02:00,
2013-03-26 12:11:00,58.0,40.0,29.98,SSW,202,1.0,4.0,52,0.00,,,0.00,,2013-03-26 19:11:00,
2013-03-26 12:22:00,59.0,42.0,29.98,SSW,213,2.0,6.0,54,0.00,,,0.00,,2013-03-26 19:22:00,
2013-03-26 12:32:00,60.0,42.0,29.98,SSE,147,1.0,5.0,51,0.00,,,0.00,,2013-03-26 19:32:00,
2013-03-26 12:42:00,60.0,42.0,29.98,SSE,147,1.0,5.0,51,0.00,,,0.00,,2013-03-26 19:42:00,
2013-03-26 12:53:00,60.0,42.0,29.98,WSW,254,1.0,6.0,52,0.00,,,0.00,,2013-03-26 19:53:00,
2013-03-26 13:01:00,62.0,46.0,29.98,SW,222,3.0,7.0,55,0.00,,,0.00,,2013-03-26 20:01:00,
2013-03-26 13:12:00,62.0,46.0,29.98,SW,222,3.0,7.0,55,0.00,,,0.00,,2013-03-26 20:12:00,
2013-03-26 13:22:00,62.0,43.0,29.98,WSW,242,0.0,5.0,50,0.00,,,0.00,,2013-03-26 20:22:00,
2013-03-26 13:32:00,62.0,43.0,29.98,WSW,242,0.0,5.0,50,0.00,,,0.00,,2013-03-26 20:32:00,
2013-03-26 13:42:00,62.0,43.0,29.98,WSW,242,0.0,5.0,50,0.00,,,0.00,,2013-03-26 20:42:00,
2013-03-26 13:52:00,62.0,44.0,29.97,WSW,256,3.0,5.0,52,0.00,,,0.00,,2013-03-26 20:52:00,
2013-03-26 14:01:00,63.0,43.0,29.97,WSW,255,3.0,6.0,48,0.00,,,0.00,,2013-03-26 21:01:00,
2013-03-26 14:12:00,63.0,43.0,29.97,WSW,255,3.0,6.0,48,0.00,,,0.00,,2013-03-26 21:12:00,
2013-03-26 14:22:00,63.0,43.0,29.97,WSW,255,3.0,6.0,48,0.00,,,0.00,,2013-03-26 21:22:00,
2013-03-26 14:32:00,63.0,43.0,29.97,WSW,255,3.0,6.0,48,0.00,,,0.00,,2013-03-26 21:32:00,
2013-03-26 14:42:00,63.0,43.0,29.97,WSW,255,3.0,6.0,48,0.00,,,0.00,,2013-03-26 21:42:00,
2013-03-26 15:22:00,64.0,45.0,29.96,WNW,294,3.0,8.0,50,0.00,,,0.00,,2013-03-26 22:22:00,
2013-03-26 15:32:00,64.0,45.0,29.96,WNW,294,3.0,8.0,50,0.00,,,0.00,,2013-03-26 22:32:00,
2013-03-26 16:22:00,62.0,40.0,29.95,NW,314,3.0,8.0,44,0.00,,,0.00,,2013-03-26 23:22:00,
2013-03-26 16:32:00,62.0,38.0,29.95,WNW,296,5.0,9.0,41,0.00,,,0.00,,2013-03-26 23:32:00,
2013-03-26 16:42:00,62.0,38.0,29.95,WNW,296,5.0,9.0,41,0.00,,,0.00,,2013-03-26 23:42:00,
2013-03-26 16:52:00,60.0,39.0,29.95,West,273,5.0,10.0,45,0.00,,,0.00,,2013-03-26 23:52:00,
2013-03-26 17:01:00,59.0,39.0,29.94,WNW,293,5.0,9.0,48,0.00,,,0.00,,2013-03-27 00:01:00,
2013-03-26 17:11:00,59.0,39.0,29.94,WNW,293,5.0,9.0,48,0.00,,,0.00,,2013-03-27 00:11:00,
2013-03-26 17:22:00,57.0,40.0,29.94,NNW,327,4.0,9.0,52,0.00,,,0.00,,2013-03-27 00:22:00,
2013-03-26 17:32:00,57.0,40.0,29.93,WNW,287,5.0,9.0,53,0.00,,,0.00,,2013-03-27 00:32:00,
2013-03-26 17:42:00,57.0,40.0,29.93,WNW,287,5.0,9.0,53,0.00,,,0.00,,2013-03-27 00:42:00,
2013-03-26 17:52:00,56.0,41.0,29.93,NW,304,2.0,7.0,56,0.00,,,0.00,,2013-03-27 00:52:00,
2013-03-26 18:02:00,56.0,41.0,29.93,NW,304,2.0,7.0,56,0.00,,,0.00,,2013-03-27 01:02:00,
2013-03-26 18:11:00,56.0,41.0,29.93,NW,304,2.0,7.0,56,0.00,,,0.00,,2013-03-27 01:11:00,
2013-03-26 18:22:00,56.0,42.0,29.93,NW,310,4.0,7.0,59,0.00,,,0.00,,2013-03-27 01:22:00,
2013-03-26 18:32:00,56.0,42.0,29.93,NW,310,4.0,7.0,59,0.00,,,0.00,,2013-03-27 01:32:00,
2013-03-26 18:42:00,56.0,42.0,29.93,NW,310,4.0,7.0,59,0.00,,,0.00,,2013-03-27 01:42:00,
2013-03-26 18:52:00,55.0,40.0,29.93,West,277,3.0,9.0,57,0.00,,,0.00,,2013-03-27 01:52:00,
2013-03-26 19:02:00,54.0,40.0,29.93,WNW,287,3.0,8.0,58,0.00,,,0.00,,2013-03-27 02:02:00,
2013-03-26 19:12:00,54.0,40.0,29.93,WNW,287,3.0,8.0,58,0.00,,,0.00,,2013-03-27 02:12:00,
2013-03-26 19:21:00,54.0,40.0,29.93,NW,322,2.0,5.0,60,0.00,,,0.00,,2013-03-27 02:21:00,
2013-03-26 19:31:00,53.0,40.0,29.93,WNW,285,2.0,8.0,62,0.00,,,0.00,,2013-03-27 02:31:00,
2013-03-26 19:42:00,53.0,40.0,29.93,WNW,285,2.0,8.0,62,0.00,,,0.00,,2013-03-27 02:42:00,
2013-03-26 19:52:00,52.0,41.0,29.93,NW,304,1.0,5.0,65,0.00,,,0.00,,2013-03-27 02:52:00,
2013-03-26 20:02:00,51.0,40.0,29.93,WNW,284,0.0,4.0,66,0.00,,,0.00,,2013-03-27 03:02:00,
2013-03-26 20:11:00,51.0,40.0,29.93,WNW,284,0.0,4.0,66,0.00,,,0.00,,2013-03-27 03:11:00,
2013-03-26 20:22:00,50.0,39.0,29.93,WNW,294,1.0,5.0,66,0.00,,,0.00,,2013-03-27 03:22:00,
2013-03-26 20:32:00,50.0,39.0,29.93,NW,311,0.0,2.0,66,0.00,,,0.00,,2013-03-27 03:32:00,
2013-03-26 20:42:00,50.0,39.0,29.93,NW,311,0.0,2.0,66,0.00,,,0.00,,2013-03-27 03:42:00,
2013-03-26 20:53:00,49.0,38.0,29.94,NW,311,1.0,3.0,66,0.00,,,0.00,,2013-03-27 03:53:00,
2013-03-26 21:02:00,48.0,38.0,29.94,NW,311,0.0,4.0,68,0.00,,,0.00,,2013-03-27 04:02:00,
2013-03-26 21:12:00,48.0,38.0,29.94,NW,311,0.0,4.0,68,0.00,,,0.00,,2013-03-27 04:12:00,
2013-03-26 21:22:00,47.0,38.0,29.94,NW,311,0.0,0.0,71,0.00,,,0.00,,2013-03-27 04:22:00,
2013-03-26 21:32:00,46.0,38.0,29.93,NW,311,0.0,0.0,74,0.00,,,0.00,,2013-03-27 04:32:00,
2013-03-26 21:42:00,46.0,38.0,29.93,NW,311,0.0,0.0,74,0.00,,,0.00,,2013-03-27 04:42:00,
2013-03-26 21:52:00,45.0,38.0,29.93,NW,311,0.0,0.0,76,0.00,,,0.00,,2013-03-27 04:52:00,
2013-03-26 22:02:00,44.0,38.0,29.94,NW,311,0.0,0.0,79,0.00,,,0.00,,2013-03-27 05:02:00,
2013-03-26 22:12:00,44.0,38.0,29.94,NW,311,0.0,0.0,79,0.00,,,0.00,,2013-03-27 05:12:00,
2013-03-26 22:22:00,43.0,37.0,29.94,NW,311,0.0,0.0,80,0.00,,,0.00,,2013-03-27 05:22:00,
2013-03-26 22:32:00,43.0,38.0,29.95,NW,311,0.0,0.0,82,0.00,,,0.00,,2013-03-27 05:32:00,
2013-03-26 22:42:00,43.0,38.0,29.95,NW,311,0.0,0.0,82,0.00,,,0.00,,2013-03-27 05:42:00,
2013-03-26 22:52:00,42.0,38.0,29.95,NW,311,0.0,2.0,84,0.00,,,0.00,,2013-03-27 05:52:00,
2013-03-26 23:01:00,42.0,38.0,29.95,NW,311,0.0,0.0,85,0.00,,,0.00,,2013-03-27 06:01:00,
2013-03-26 23:11:00,42.0,38.0,29.95,NW,311,0.0,0.0,85,0.00,,,0.00,,2013-03-27 06:11:00,
2013-03-26 23:22:00,42.0,38.0,29.95,NW,311,0.0,0.0,84,0.00,,,0.00,,2013-03-27 06:22:00,
2013-03-26 23:32:00,42.0,38.0,29.95,NW,311,0.0,0.0,85,0.00,,,0.00,,2013-03-27 06:32:00,
2013-03-26 23:42:00,42.0,38.0,29.95,NW,311,0.0,0.0,85,0.00,,,0.00,,2013-03-27 06:42:00,
2013-03-26 23:52:00,41.0,37.0,29.95,NW,311,0.0,0.0,87,0.00,,,0.00,,2013-03-27 06:52:00,